This is the latest recevied weather packets stored in our database for station/object DJ2DS-13. If no packets are shown the sender has not sent any weather packets the latest 10 day(s).
| Time | Temp. | Humidity | Pressure | Rain* | Wind** | Luminosity | Snow |
|---|---|---|---|---|---|---|---|
| 1777527865 | 5.56° C | 89% | 1031.1 hPa | 0 mm | - | 160 W/m² | - |
| 1777527565 | 5° C | 89% | 1031.1 hPa | 0 mm | - | 148 W/m² | - |
| 1777527265 | 4.44° C | 89% | 1031.2 hPa | 0 mm | - | 134 W/m² | - |
| 1777526965 | 3.89° C | 89% | 1031.1 hPa | 0 mm | - | 109 W/m² | - |
| 1777526666 | 3.89° C | 89% | 1031.1 hPa | 0 mm | - | 51 W/m² | - |
| 1777526364 | 3.33° C | 88% | 1031.1 hPa | 0 mm | - | 33 W/m² | - |
| 1777526066 | 3.33° C | 88% | 1030.9 hPa | 0 mm | - | 28 W/m² | - |
| 1777525764 | 3.33° C | 88% | 1031 hPa | 0 mm | - | 26 W/m² | - |
| 1777525463 | 3.33° C | 88% | 1030.9 hPa | 0 mm | - | 25 W/m² | - |
| 1777525163 | 3.33° C | 88% | 1030.9 hPa | 0 mm | - | 25 W/m² | - |
| 1777524863 | 2.78° C | 87% | 1030.9 hPa | 0 mm | - | 23 W/m² | - |
| 1777524560 | 2.78° C | 86% | 1030.8 hPa | 0 mm | - | 21 W/m² | - |
| 1777524260 | 2.78° C | 86% | 1030.8 hPa | 0 mm | - | 19 W/m² | - |
| 1777523961 | 2.78° C | 86% | 1030.8 hPa | 0 mm | - | 18 W/m² | - |
| 1777523658 | 2.78° C | 86% | 1030.7 hPa | 0 mm | - | 16 W/m² | - |
| 1777523359 | 2.78° C | 86% | 1030.7 hPa | 0 mm | - | 14 W/m² | - |
| 1777523055 | 2.78° C | 86% | 1030.7 hPa | 0 mm | - | 14 W/m² | - |
| 1777522756 | 2.78° C | 86% | 1030.5 hPa | 0 mm | - | 12 W/m² | - |
| 1777522456 | 3.33° C | 86% | 1030.6 hPa | 0 mm | - | 11 W/m² | - |
| 1777522155 | 3.33° C | 86% | 1030.6 hPa | 0 mm | - | 9 W/m² | - |
| 1777521854 | 3.33° C | 86% | 1030.5 hPa | 0 mm | - | 7 W/m² | - |
| 1777521553 | 3.33° C | 86% | 1030.5 hPa | 0 mm | - | 5 W/m² | - |
| 1777521254 | 3.33° C | 87% | 1030.5 hPa | 0 mm | - | 0 W/m² | - |
| 1777520952 | 3.33° C | 87% | 1030.6 hPa | 0 mm | - | 0 W/m² | - |
| 1777520651 | 3.33° C | 87% | 1030.5 hPa | 0 mm | - | 0 W/m² | - |
* Rain latest hour (hover to see other rain measurements)
** Current wind speed in m/s (hover to see current wind gust speed)